Showing default

ESSA 1 (OT-3), 1982

Orbit data source: Space-Track

ESSA 1 (OT-3), 1982 is a payload satellite owned by ESSA (US) in SSO that was launched on Thu, 03 Feb 1966 UTC via a THOR DELTA C launch vehicle from the Air Force Eastern Test Range (AFETR). Payloads include a variety of satellites, spacecraft, and rockets equipped with specific instruments for various scientific and technological missions. These include communications satellites like Starlink; space stations such as the ISS; scientific satellites like the Hubble; Earth observation satellites from companies like Planet Labs, Umbra, and HawkEye 360; GPS; miniature CubeSats for education and research; and military/defense satellites.

Loading next visibility...
ESSA 1 (OT-3) details
Identifier
1982, 1966-008A
Orbit
SSO
Last TLE update1 day ago
Origin
Flag of USESSA (US)
ManufacturerRCA/East Windsor
MissionNon-operational Civil Weather
Bus & MotorTIROS I, Unknown motor
Mass138 kg wet, 138 kg dry
Launch date (UTC)
1966-02-03 (59 years ago)
Launch vehicle
THOR DELTA C
Launch site
Air Force Eastern Test Range (AFETR)
Object type
Payload
Rocket body
Debris
Shape & HBRCyl, 1.07 m
Radar Cross Section0.920 m², Medium (>0.1 m² and < 1m²)

Expand to show TLE details & history

TLE from 1 day ago
0 ESSA 1 (OT-3)
1 01982U 66008A   25022.39756691  .00000660  00000-0  18229-3 0  9994
2 01982  97.8849  85.5109 0079077 241.4504 117.8715 14.47990346 84015
Epoch: 2025-01-22T09:32Z
Definitive object data (Epoch: 2025-01-22T09:32:29.781Z)
Latitude0.00004°
Longitude-179.60322°
Altitude761.834 km
Speed7.459 km/s
True Right ascension05h 42m 02s
True Declination0° 00' 00"
Sunlit
Object was in full shadow at TLE epoch
Visualization TLE readout
Latitude-76.92647°
Longitude-34.71451°
Altitude707.69 km
Speed7.529 km/s
Apparent Right ascension08h 43m 18s
Apparent Declination-68° 15' 20"
Sunlit
Object is in daylight
Visualization observer readout
Local Sidereal Time19:27:47
Azimuth193.815° SSW
Elevation-59.867°
Doppler factor1
Orbital elements
Apogee altitude785.506 km
Perigee altitude673.099 km
Semi-major axis7,107.44 km
Eccentricity0.0079077
Inclination97.8849°
RAAN85.5109°
Arg. of periapsis241.4504°
True anomaly118.66883°
Mean anomaly117.8715°
Eccentric anomaly118.27054°
Mean motion3.62221 °/min
BSTAR0.00018229
Orbital period99.39 mins
Loading maneuver chart data...
Loading historical data...
Loading historical data...
Loading historical data...
Loading historical data...
Loading historical data...
Loading historical data...
Loading historical data...

ESSA 1 (OT-3) Visibility forecast

Observer location: undefined°, undefined

Span
Click to sort rows by Start time (UTC) header in descending order
Start Az.
Max El. time (UTC)
Max El. Az.
Max El.
End time (UTC)
End Az.
7 mins2025-01-24 03:08:55.750Z118.276° SE2025-01-24 03:11:55.750Z76.303° E24.769°2025-01-24 03:15:55.750Z16.019° NNE
8 mins2025-01-24 04:46:55.750Z204.54° SW2025-01-24 04:50:55.750Z272.779° WNW29.587°2025-01-24 04:54:55.750Z327.249° NNW
8 mins2025-01-24 16:51:55.750Z16.409° NNE2025-01-24 16:54:55.750Z47.522° ENE43.812°2025-01-24 16:59:55.750Z189.759° SSW
|